Location: Avully
(45.9633°N, 6.0228°E)
Time: 09:55:57
(UTC+00:00)

Cosmos 676 Rocket - Pass Details

Date: 23 May 2024
Orbit: 752 x 782 km, 74.0° (Epoch: 14 June)

Event Time Altitude Azimuth Distance (km) Brightness Sun altitude
Exits shadow 00:42:50 48° 187° (S) 1,007 4.1 -21.5°
Maximum altitude 00:44:19 80° 110° (ESE) 798 4.0 -21.4°
Drops below altitude 10° 00:49:40 10° 24° (NNE) 2,347 7.7 -21.1°
Sets 00:52:04 0° 23° (NNE) 3,279 8.8 -21.0°
